User: anonymous   Login
Location: Blankensee
(53.5126°N, 14.3055°E)
Time: 12:09:42
(UTC+00:00)
Language:

Landsat 4 - Orbit

View from above orbital plane
View from above orbital plane
View from above satellite
View from above satellite

Ground track
Ground track

The orbit data is extracted from the following two-line orbital elements,

1 13367U 82072A   20296.38438698 +.00001008 +00000-0 +54534-4 0  9991
2 13367 098.1783 217.1376 0012934 001.9707 113.0327 15.17247755495737
Epoch (UTC): 22 October 2020 09:13:31
Eccentricity: 0.0012934
inclination: 98.1783°
perigee height: 505 km
apogee height: 523 km
right ascension of ascending node: 217.1376°
argument of perigee: 1.9707°
revolutions per day: 15.17247755
mean anomaly at epoch: 113.0327°
orbit number at epoch: 49573

The dashed part of the orbit path shows where the satellite is in the earth's shadow,  

DLR